2024-211B

Last updated on Wed Nov 20 2024 00:02:05 GMT+0000 (Coordinated Universal Time)

1 61984U 24211B 24324.17490961 .01153689 75576-5 57150-3 0 9999 2 61984 41.4502 216.3500 0083210 194.8309 295.0360 16.11826080 560
UTC large
Height (km)
Speed (km/s)
/
Latitude / Longitude
Inclination (degrees)
Orbital Period (minutes)
Azimuth
Elevation
Range (km)
Doppler Factor

Next 0 passes for location: London (51.5072 / 0.1276)

Sorry there are no passes over London.